[[{"header":{"parameterUnit":"m.s-1","parameterCategory":1,"la1":30.2991,"la2":30.254,"lo1":-89.0895,"lo2":-89.0444,"dy":0.0017,"dx":0.0017,"nx":28,"ny":28,"refTime":"2025-07-16T09:00:00:Z","depth":0,"parameterNumber":2,"parameterNumberName":"U-component_of_WINDS"},"data":[0,0,0,0,0,0,0,0,0,0,0,0,0,0,0,0,0,0,0,0,0,0,0,0,0,0,0,0,0,0,0,0,0,0,0,0,0,0,0,0,0,0,0,0,0,0,0,0,0,0,0,0,0,0,0,0,0,0,-0.8079,-0.8076,0,-0.7836,-0.7833,-0.7831,-0.7686,-0.7685,-0.7684,-0.7684,-0.7437,-0.7431,-0.7425,0,0,0,0,0,0,0,0,0,0,0,0,0,-0.8418,-0.8413,-0.8079,-0.8076,-0.8073,-0.7837,-0.7833,-0.783,-0.7686,-0.7685,-0.7684,-0.7683,-0.7439,-0.7432,-0.7425,0,0,0,0,0,0,0,0,0,0,0,0,0,-0.8233,-0.8411,-0.808,-0.7972,-0.796,-0.7837,-0.7833,-0.7829,-0.7686,-0.7685,-0.7684,-0.7683,-0.7441,-0.7433,-0.7424,-0.7389,0,0,-0.7397,-0.7393,0,0,0,0,0,0,0,0,-0.8244,-0.8221,-0.7991,-0.798,-0.7966,-0.779,-0.7862,-0.7682,-0.7686,-0.779,-0.7684,-0.7682,-0.7555,-0.7537,-0.7494,-0.7377,-0.7367,-0.7396,-0.739,-0.7387,-0.7384,0,0,0,0,0,0,0,-0.8257,-0.823,-0.7983,-0.7988,-0.7973,-0.7937,-0.7909,-0.7827,-0.7682,-0.7781,-0.777,-0.7743,-0.7548,-0.7503,-0.7487,-0.7363,-0.7396,-0.7388,-0.7383,-0.7379,-0.7205,-0.7206,0,0,0,0,0,0,-0.8286,-0.8242,-0.7991,-0.7976,-0.8105,-0.7931,-0.7901,-0.7848,-0.7682,-0.7656,-0.7744,-0.7737,-0.7518,-0.7498,-0.7478,-0.7425,-0.7387,-0.7378,-0.7373,-0.7204,-0.7205,-0.7206,0,0,0,0,0,0,-0.8294,-0.8265,-0.8,-0.8106,-0.8069,-0.7927,-0.7868,-0.7843,-0.7797,-0.7654,-0.7627,-0.7724,-0.7517,-0.749,-0.7412,-0.7415,-0.7374,-0.7366,-0.7203,-0.7204,-0.7205,-0.7322,0,0,0,0,0,0,-0.8305,-0.8269,-0.8254,-0.8106,-0.8064,-0.7939,-0.7868,-0.7839,-0.7782,-0.7771,-0.7628,-0.7604,-0.7514,-0.7426,-0.7403,-0.7402,-0.7359,-0.7202,-0.7204,-0.7205,-0.7317,-0.7327,-0.7335,0,0,0,0,0,-0.8317,-0.8297,-0.8254,-0.8225,-0.8043,-0.7939,-0.7915,-0.7812,-0.7783,-0.7767,-0.7675,-0.7608,-0.7418,-0.7419,-0.7392,-0.7389,-0.7202,-0.7203,-0.7205,-0.7313,-0.7325,-0.7335,0,0,0,0,0,0,-0.8451,-0.8276,-0.8227,-0.8158,-0.8065,-0.7915,-0.7892,-0.7827,-0.774,-0.7734,-0.7609,-0.7578,-0.7512,-0.7442,-0.7446,-0.7345,-0.7302,-0.7299,-0.7394,-0.7404,-0.7413,-0.7431,-0.7352,0,0,0,0,0,-0.8472,-0.8402,-0.8253,-0.8208,-0.8163,-0.8036,-0.7987,-0.7915,-0.7813,-0.7773,-0.7675,-0.7579,-0.7497,-0.7446,-0.7363,-0.7306,-0.7272,-0.729,-0.7299,-0.7307,-0.7305,-0.7269,-0.7275,-0.7211,-0.7211,-0.7211,0,0,-0.8516,-0.8412,-0.8376,-0.8232,-0.8151,-0.8081,-0.8004,-0.7934,-0.7881,-0.7763,-0.7682,-0.7607,-0.7492,-0.7423,-0.7388,-0.7363,-0.7315,-0.7309,-0.7316,-0.731,-0.7271,-0.7278,-0.7283,-0.7212,-0.7212,-0.7212,0,0,-0.856,-0.8474,-0.8426,-0.8346,-0.8224,-0.8139,-0.8128,-0.7987,-0.7932,-0.7849,-0.7759,-0.7694,-0.7557,-0.7478,-0.742,-0.7433,-0.7369,-0.7409,-0.7457,-0.7423,-0.7428,-0.7432,-0.7437,-0.744,-0.7408,-0.7409,-0.7409,0,-0.863,-0.8522,-0.841,-0.8345,-0.8284,-0.8172,-0.8123,-0.8051,-0.7908,-0.7869,-0.7842,-0.7666,-0.7581,-0.7492,-0.7495,-0.7452,-0.7435,-0.7426,-0.7436,-0.7439,-0.7441,-0.7444,-0.7446,-0.7414,-0.7414,-0.7413,-0.7413,0,-0.8614,-0.854,-0.8516,-0.838,-0.8316,-0.826,-0.814,-0.8088,-0.8022,-0.794,-0.7857,-0.775,-0.7643,-0.7616,-0.7551,-0.7518,-0.7506,-0.746,-0.7414,-0.7455,-0.7455,-0.7456,-0.7423,-0.7421,-0.7419,-0.7417,0,0,-0.8738,-0.8539,-0.8532,-0.8469,-0.8325,-0.8266,-0.8204,-0.8098,-0.8057,-0.7962,-0.7907,-0.7792,-0.7747,-0.7681,-0.7606,-0.7576,-0.7593,-0.7532,-0.7528,-0.7548,-0.755,-0.7587,-0.759,-0.7549,-0.7549,-0.7548,-0.756,0,-0.8761,-0.8644,-0.854,-0.8461,-0.8391,-0.8283,-0.8228,-0.8134,-0.8056,-0.7985,-0.7898,-0.7819,-0.7766,-0.7726,-0.7691,-0.7599,-0.7592,-0.7596,-0.7497,-0.7495,-0.753,-0.7591,-0.7629,-0.7646,-0.756,-0.756,-0.756,0,-0.8774,-0.8682,-0.8596,-0.8457,-0.8424,-0.8377,-0.8272,-0.8205,-0.8096,-0.8041,-0.7967,-0.7888,-0.7817,-0.7778,-0.7679,-0.7684,-0.7637,-0.7585,-0.7583,-0.7571,-0.7531,-0.7581,-0.7648,-0.7651,-0.7559,-0.7559,-0.7559,0,-0.8873,-0.8728,-0.8657,-0.8606,-0.8443,-0.8413,-0.8344,-0.8233,-0.8176,-0.8084,-0.8045,-0.7947,-0.7893,-0.7818,-0.7714,-0.7695,-0.7626,-0.7578,-0.7578,-0.7581,-0.757,-0.7572,-0.7632,-0.7539,-0.7539,-0.7539,-0.7539,0,-0.8911,-0.8863,-0.8699,-0.8656,-0.8598,-0.848,-0.8426,-0.8347,-0.8249,-0.8189,-0.8089,-0.8035,-0.79,-0.7829,-0.7747,-0.7677,-0.7654,-0.7607,-0.7586,-0.7617,-0.7623,-0.7585,-0.7582,-0.7539,-0.7539,-0.7539,-0.7539,0,-0.9014,-0.8902,-0.8818,-0.867,-0.8631,-0.8595,-0.8468,-0.8422,-0.8337,-0.8262,-0.8237,-0.8104,-0.8016,-0.7904,-0.778,-0.7724,-0.7664,-0.7631,-0.7701,-0.7689,-0.7696,-0.7697,-0.7734,-0.7733,-0.7641,-0.7642,-0.7643,0,-0.9046,-0.9005,-0.8853,-0.8804,-0.8738,-0.8662,-0.8602,-0.8484,-0.8426,-0.8298,-0.8267,-0.817,-0.8087,-0.795,-0.7843,-0.7748,-0.7712,-0.7732,-0.7697,-0.7729,-0.7713,-0.7717,-0.7713,-0.7741,-0.7743,-0.7744,-0.7745,0,-0.9115,-0.9061,-0.8979,-0.8878,-0.8809,-0.8724,-0.8634,-0.86,-0.8463,-0.8403,-0.8311,-0.8246,-0.8118,-0.8024,-0.7914,-0.7843,-0.7772,-0.7756,-0.7751,-0.7783,-0.7825,-0.7803,-0.7726,-0.7757,-0.7755,-0.7755,-0.7754,-0.7754,-0.9183,-0.9142,-0.9028,-0.8939,-0.8859,-0.8777,-0.8726,-0.8634,-0.8554,-0.8441,-0.8375,-0.8285,-0.8175,-0.802,-0.7952,-0.788,-0.7853,-0.7846,-0.7844,-0.7845,-0.7855,-0.7836,-0.7859,-0.7859,-0.7858,-0.7858,-0.7858,0,-0.9247,-0.9168,-0.9088,-0.8965,-0.8895,-0.8832,-0.8729,-0.8675,-0.8597,-0.85,-0.8419,-0.8313,-0.822,-0.8105,-0.8005,-0.7969,-0.7934,-0.7947,-0.7949,-0.7934,-0.7884,-0.7898,-0.7977,-0.7977,-0.7977,-0.7977,-0.7977,-0.7977,-0.9273,-0.92,-0.9133,-0.9019,-0.8939,-0.8849,-0.8796,-0.872,-0.8642,-0.8527,-0.8449,-0.8374,-0.827,-0.8161,-0.8073,-0.8041,-0.8009,-0.8033,-0.7992,-0.7948,-0.7937,-0.7927,-0.794,-0.8026,-0.8027,-0.8047,-0.8047,-0.8048]},{"header":{"parameterUnit":"m.s-1","parameterCategory":1,"la1":30.2991,"la2":30.254,"lo1":-89.0895,"lo2":-89.0444,"dy":0.0017,"dx":0.0017,"nx":28,"ny":28,"refTime":"2025-07-16T09:00:00:Z","depth":0,"parameterNumber":3,"parameterNumberName":"V-component_of_WINDS"},"data":[0,0,0,0,0,0,0,0,0,0,0,0,0,0,0,0,0,0,0,0,0,0,0,0,0,0,0,0,0,0,0,0,0,0,0,0,0,0,0,0,0,0,0,0,0,0,0,0,0,0,0,0,0,0,0,0,0,0,-2.2738,-2.2739,0,-2.2816,-2.2817,-2.2818,-2.2865,-2.2865,-2.2866,-2.2866,-2.2946,-2.2947,-2.2949,0,0,0,0,0,0,0,0,0,0,0,0,0,-2.2631,-2.2633,-2.2738,-2.2739,-2.274,-2.2816,-2.2817,-2.2818,-2.2865,-2.2865,-2.2866,-2.2866,-2.2945,-2.2947,-2.295,0,0,0,0,0,0,0,0,0,0,0,0,0,-2.269,-2.2634,-2.2738,-2.2773,-2.2777,-2.2816,-2.2817,-2.2818,-2.2865,-2.2865,-2.2866,-2.2866,-2.2944,-2.2947,-2.295,-2.296,0,0,-2.2959,-2.296,0,0,0,0,0,0,0,0,-2.2687,-2.2694,-2.2767,-2.277,-2.2775,-2.2831,-2.2809,-2.2866,-2.2865,-2.2831,-2.2866,-2.2866,-2.2907,-2.2913,-2.2927,-2.2964,-2.2967,-2.2959,-2.2961,-2.2962,-2.2963,0,0,0,0,0,0,0,-2.2683,-2.2691,-2.2769,-2.2768,-2.2773,-2.2785,-2.2794,-2.282,-2.2866,-2.2834,-2.2838,-2.2847,-2.291,-2.2924,-2.2929,-2.2969,-2.2959,-2.2961,-2.2963,-2.2964,-2.3019,-2.3019,0,0,0,0,0,0,-2.2673,-2.2687,-2.2766,-2.2771,-2.2731,-2.2786,-2.2796,-2.2813,-2.2866,-2.2875,-2.2846,-2.2849,-2.2919,-2.2926,-2.2932,-2.2949,-2.2962,-2.2964,-2.2966,-2.302,-2.3019,-2.3019,0,0,0,0,0,0,-2.2671,-2.268,-2.2763,-2.273,-2.2742,-2.2788,-2.2806,-2.2814,-2.2829,-2.2875,-2.2884,-2.2852,-2.292,-2.2928,-2.2953,-2.2952,-2.2966,-2.2968,-2.302,-2.302,-2.3019,-2.2981,0,0,0,0,0,0,-2.2667,-2.2678,-2.2682,-2.273,-2.2743,-2.2782,-2.2806,-2.2815,-2.2833,-2.2837,-2.2883,-2.2891,-2.2921,-2.2949,-2.2956,-2.2956,-2.2971,-2.302,-2.302,-2.3019,-2.2982,-2.2979,-2.2976,0,0,0,0,0,-2.2663,-2.2668,-2.2682,-2.2692,-2.2749,-2.2782,-2.279,-2.2824,-2.2833,-2.2838,-2.2868,-2.289,-2.2951,-2.2951,-2.296,-2.296,-2.3021,-2.302,-2.3019,-2.2984,-2.298,-2.2977,0,0,0,0,0,0,-2.2619,-2.2675,-2.2691,-2.2712,-2.2742,-2.279,-2.2797,-2.2818,-2.2846,-2.2848,-2.2889,-2.2899,-2.292,-2.2943,-2.2942,-2.2974,-2.2988,-2.299,-2.2958,-2.2955,-2.2952,-2.2946,-2.2973,0,0,0,0,0,-2.2612,-2.2633,-2.2681,-2.2695,-2.2709,-2.275,-2.2766,-2.2789,-2.2822,-2.2835,-2.2867,-2.2898,-2.2925,-2.2941,-2.2968,-2.2986,-2.2997,-2.2991,-2.2988,-2.2986,-2.2986,-2.2998,-2.2996,-2.3017,-2.3017,-2.3017,0,0,-2.2596,-2.263,-2.2641,-2.2687,-2.2713,-2.2735,-2.2761,-2.2783,-2.28,-2.2839,-2.2864,-2.2889,-2.2926,-2.2948,-2.2959,-2.2968,-2.2983,-2.2985,-2.2982,-2.2984,-2.2997,-2.2995,-2.2994,-2.3017,-2.3017,-2.3017,0,0,-2.258,-2.2608,-2.2622,-2.2648,-2.2688,-2.2715,-2.2719,-2.2764,-2.2782,-2.2809,-2.2839,-2.286,-2.2904,-2.293,-2.2949,-2.2944,-2.2965,-2.2951,-2.2936,-2.2947,-2.2945,-2.2944,-2.2943,-2.2942,-2.2952,-2.2952,-2.2952,0,-2.2556,-2.2591,-2.2627,-2.2648,-2.2667,-2.2704,-2.272,-2.2743,-2.2789,-2.2802,-2.2811,-2.2868,-2.2896,-2.2925,-2.2923,-2.2937,-2.2943,-2.2946,-2.2943,-2.2942,-2.2941,-2.294,-2.294,-2.295,-2.295,-2.295,-2.295,0,-2.256,-2.2583,-2.259,-2.2634,-2.2655,-2.2673,-2.2712,-2.2729,-2.2751,-2.2778,-2.2805,-2.284,-2.2875,-2.2883,-2.2905,-2.2915,-2.292,-2.2935,-2.295,-2.2937,-2.2937,-2.2937,-2.2947,-2.2948,-2.2948,-2.2949,0,0,-2.2517,-2.2582,-2.2584,-2.2604,-2.2651,-2.267,-2.269,-2.2725,-2.2738,-2.2769,-2.2787,-2.2825,-2.284,-2.2861,-2.2886,-2.2896,-2.2891,-2.2911,-2.2912,-2.2906,-2.2905,-2.2893,-2.2892,-2.2906,-2.2906,-2.2906,-2.2902,0,-2.2507,-2.2545,-2.2579,-2.2604,-2.2627,-2.2663,-2.2681,-2.2711,-2.2737,-2.2761,-2.279,-2.2815,-2.2833,-2.2846,-2.2858,-2.2889,-2.2891,-2.289,-2.2923,-2.2924,-2.2912,-2.2892,-2.2879,-2.2874,-2.2903,-2.2903,-2.2903,0,-2.2501,-2.2531,-2.2559,-2.2604,-2.2615,-2.263,-2.2665,-2.2687,-2.2723,-2.2741,-2.2766,-2.2792,-2.2816,-2.2829,-2.2862,-2.286,-2.2876,-2.2894,-2.2894,-2.2899,-2.2912,-2.2896,-2.2873,-2.2873,-2.2903,-2.2903,-2.2903,0,-2.2467,-2.2514,-2.2537,-2.2554,-2.2608,-2.2618,-2.2641,-2.2677,-2.2696,-2.2727,-2.274,-2.2773,-2.2791,-2.2816,-2.2851,-2.2857,-2.2881,-2.2896,-2.2897,-2.2896,-2.2899,-2.2899,-2.2879,-2.291,-2.291,-2.291,-2.291,0,-2.2453,-2.2468,-2.2523,-2.2537,-2.2556,-2.2595,-2.2613,-2.2639,-2.2671,-2.2692,-2.2725,-2.2743,-2.2788,-2.2812,-2.284,-2.2863,-2.2871,-2.2887,-2.2894,-2.2884,-2.2882,-2.2895,-2.2896,-2.291,-2.291,-2.291,-2.291,0,-2.2417,-2.2454,-2.2482,-2.2531,-2.2544,-2.2556,-2.2598,-2.2613,-2.2642,-2.2667,-2.2675,-2.272,-2.275,-2.2787,-2.2829,-2.2848,-2.2868,-2.2879,-2.2856,-2.286,-2.2858,-2.2858,-2.2846,-2.2847,-2.2877,-2.2876,-2.2876,0,-2.2406,-2.2419,-2.247,-2.2486,-2.2508,-2.2533,-2.2553,-2.2593,-2.2612,-2.2655,-2.2665,-2.2698,-2.2726,-2.2772,-2.2808,-2.2841,-2.2853,-2.2847,-2.2858,-2.2847,-2.2853,-2.2851,-2.2853,-2.2843,-2.2843,-2.2842,-2.2842,0,-2.2381,-2.2399,-2.2426,-2.246,-2.2483,-2.2512,-2.2542,-2.2553,-2.2599,-2.2619,-2.2651,-2.2672,-2.2716,-2.2748,-2.2785,-2.2809,-2.2833,-2.2838,-2.284,-2.283,-2.2816,-2.2823,-2.2848,-2.2838,-2.2839,-2.2839,-2.2839,-2.2839,-2.2357,-2.2371,-2.2409,-2.2439,-2.2466,-2.2494,-2.2511,-2.2542,-2.2568,-2.2607,-2.2629,-2.2659,-2.2697,-2.2749,-2.2773,-2.2798,-2.2806,-2.2809,-2.281,-2.2809,-2.2806,-2.2812,-2.2805,-2.2805,-2.2805,-2.2805,-2.2805,0,-2.2335,-2.2361,-2.2388,-2.243,-2.2453,-2.2475,-2.2509,-2.2527,-2.2554,-2.2587,-2.2614,-2.265,-2.2682,-2.2721,-2.2756,-2.2768,-2.278,-2.2776,-2.2775,-2.278,-2.2796,-2.2791,-2.2766,-2.2766,-2.2766,-2.2766,-2.2766,-2.2766,-2.2325,-2.235,-2.2373,-2.2411,-2.2438,-2.2468,-2.2486,-2.2512,-2.2539,-2.2578,-2.2605,-2.263,-2.2666,-2.2703,-2.2734,-2.2744,-2.2756,-2.2748,-2.2762,-2.2776,-2.2779,-2.2783,-2.2778,-2.275,-2.275,-2.2744,-2.2744,-2.2744]}]]